User: anonymous   Login
Location: Unspecified
(49.6138°N, 13.6004°E)
Time: 02:50:12
(UTC+02:00)
Language:

ASTRO F (AKARI) - Orbit

View from above orbital plane
View from above orbital plane
View from above satellite
View from above satellite

Ground track
Ground track

The orbit data is extracted from the following two-line orbital elements,

1 28939U 06005A   19197.08283926  .00002274  00000-0  64839-4 0  9996
2 28939  98.1923 128.9014 0098597  63.9482 297.1867 15.32621803729212
Epoch (UTC): 16 July 2019 01:59:17
Eccentricity: 0.0098597
inclination: 98.1923°
perigee height: 400 km
apogee height: 535 km
right ascension of ascending node: 128.9014°
argument of perigee: 63.9482°
revolutions per day: 15.32621803
mean anomaly at epoch: 297.1867°
orbit number at epoch: 72921

The dashed part of the orbit path shows where the satellite is in the earth's shadow,  

DLR